This is the latest recevied weather packets stored in our database for station/object KD2VWU. If no packets are shown the sender has not sent any weather packets the latest 10 day(s).
| Time | Temp. | Humidity | Pressure | Rain* | Wind** | Luminosity | Snow |
|---|---|---|---|---|---|---|---|
| 1777773479 | 9.44° C | 56% | 1008.6 hPa | 0 mm | - | - | - |
| 1777772872 | 9.44° C | 56% | 1008.3 hPa | 0 mm | - | - | - |
| 1777772267 | 9.44° C | 56% | 1008.4 hPa | 0 mm | - | - | - |
| 1777771359 | 10° C | 55% | 1008.4 hPa | 0 mm | - | - | - |
| 1777768935 | 10.56° C | 55% | 1008.3 hPa | 0 mm | - | - | - |
| 1777768329 | 10.56° C | 57% | 1008.2 hPa | 0 mm | - | - | - |
| 1777768025 | 10.56° C | 60% | 1008.2 hPa | 0 mm | - | - | - |
| 1777767418 | 10.56° C | 58% | 1008 hPa | 0 mm | - | - | - |
| 1777767115 | 10.56° C | 61% | 1007.8 hPa | 0 mm | - | - | - |
| 1777766812 | 10.56° C | 61% | 1007.9 hPa | 0 mm | - | - | - |
| 1777765600 | 11.11° C | 63% | 1007.8 hPa | 0 mm | - | - | - |
| 1777764993 | 11.11° C | 61% | 1007.5 hPa | 0 mm | - | - | - |
| 1777764690 | 11.11° C | 59% | 1007.5 hPa | 0 mm | - | - | - |
| 1777764386 | 11.67° C | 58% | 1007.5 hPa | 0 mm | - | - | - |
| 1777764084 | 11.67° C | 57% | 1007.5 hPa | 0 mm | - | - | - |
| 1777761358 | 12.78° C | 53% | 1007.2 hPa | 0 mm | - | - | - |
| 1777761056 | 12.78° C | 55% | 1007.2 hPa | 0 mm | - | - | - |
| 1777760753 | 12.78° C | 52% | 1007.2 hPa | 0 mm | - | - | - |
| 1777760449 | 12.78° C | 53% | 1007.2 hPa | 0 mm | - | - | - |
| 1777760145 | 12.78° C | 56% | 1007.2 hPa | 0 mm | - | - | - |
| 1777759843 | 12.78° C | 53% | 1007.1 hPa | 0 mm | - | - | - |
| 1777759538 | 12.78° C | 51% | 1007.2 hPa | 0 mm | - | - | - |
| 1777759235 | 12.78° C | 51% | 1007.2 hPa | 0 mm | - | - | - |
| 1777758932 | 12.78° C | 53% | 1007.1 hPa | 0 mm | - | - | - |
| 1777758629 | 12.78° C | 52% | 1007 hPa | 0 mm | - | - | - |
* Rain latest hour (hover to see other rain measurements)
** Current wind speed in m/s (hover to see current wind gust speed)